Location: Ahausen
(50.4985°N, 8.2722°E)
Time: 10:46:07
(UTC+00:00)

Cosmos 1437 - Pass Details

Date: 18 September 2020
Orbit: 365 x 368 km, 81.2° (Epoch: 30 October)

Event Time Altitude Azimuth Distance (km) Brightness Sun altitude
Rises 18:10:19 0° 348° (NNW) 2,258 6.8 -6.7°
Reaches altitude 10° 18:12:20 10° 350° (N) 1,401 5.7 -7.0°
Maximum altitude 18:15:22 79° 77° (ENE) 391 2.5 -7.5°
Drops below altitude 10° 18:18:23 10° 165° (SSE) 1,387 5.1 -7.9°
Sets 18:20:21 0° 167° (SSE) 2,233 6.2 -8.3°
